Date,TemperatureHighF,TemperatureAvgF,TemperatureLowF,DewpointHighF,DewpointAvgF,DewpointLowF,HumidityHigh,HumidityAvg,HumidityLow,PressureMaxIn,PressureMinIn,WindSpeedMaxMPH,WindSpeedAvgMPH,GustSpeedMaxMPH,PrecipitationSumIn
2013-1-1,21,7,-1,-100,-100,-100,0,0,100,0.00,40.00,0,-999,0,0.00
2013-1-2,26,10,4,-100,-100,-100,0,0,100,0.00,40.00,0,-999,0,0.00
2013-1-3,23,10,1,-100,-100,-100,0,0,100,0.00,40.00,0,-999,0,0.00
2013-1-4,31,16,6,-100,-100,-100,0,0,100,0.00,40.00,0,-999,0,0.01
2013-1-5,36,24,12,-100,-100,-100,0,0,100,0.00,40.00,0,-999,0,0.00
2013-1-6,38,28,21,-100,-100,-100,0,0,100,0.00,40.00,0,-999,0,0.00
2013-1-7,40,27,20,-100,-100,-100,0,0,100,0.00,40.00,0,-999,0,0.00
2013-1-8,33,24,18,-100,-100,-100,0,0,100,0.00,40.00,0,-999,0,0.00
2013-1-9,41,29,19,-100,-100,-100,0,0,100,0.00,40.00,0,-999,0,0.00
2013-1-10,35,29,25,-100,-100,-100,0,0,100,0.00,40.00,0,-999,0,0.00
2013-1-11,25,12,4,-100,-100,-100,0,0,100,0.00,40.00,0,-999,0,0.01
2013-1-12,12,3,-5,-100,-100,-100,0,0,100,0.00,40.00,0,-999,0,0.00
2013-1-13,7,2,-5,-100,-100,-100,0,0,100,0.00,40.00,0,-999,0,0.01
2013-1-14,11,-4,-11,-100,-100,-100,0,0,100,0.00,40.00,0,-999,0,0.00
2013-1-15,14,2,-14,-100,-100,-100,0,0,100,0.00,40.00,0,-999,0,0.01
2013-1-16,32,18,9,-100,-100,-100,0,0,100,0.00,40.00,0,-999,0,0.01
2013-1-17,34,24,15,-100,-100,-100,0,0,100,0.00,40.00,0,-999,0,0.00
2013-1-18,38,27,18,-100,-100,-100,0,0,100,0.00,40.00,0,-999,0,0.00
2013-1-19,40,27,21,-100,-100,-100,0,0,100,0.00,40.00,0,-999,0,0.00
2013-1-20,40,28,20,-100,-100,-100,0,0,100,0.00,40.00,0,-999,0,0.00
2013-1-21,42,30,22,-100,-100,-100,0,0,100,0.00,40.00,0,-999,0,0.00
2013-1-22,46,34,26,-100,-100,-100,0,0,100,0.00,40.00,0,-999,0,0.00
2013-1-23,46,36,29,-100,-100,-100,0,0,100,0.00,40.00,0,-999,0,0.00
2013-1-24,40,34,30,-100,-100,-100,0,0,100,0.00,40.00,0,-999,0,0.01
2013-1-25,34,32,31,-100,-100,-100,0,0,100,0.00,40.00,0,-999,0,0.01
2013-1-26,36,33,30,-100,-100,-100,0,0,100,0.00,40.00,0,-999,0,0.07
2013-1-27,33,31,30,-100,-100,-100,0,0,100,0.00,40.00,0,-999,0,0.07
2013-1-28,31,24,15,-100,-100,-100,0,0,100,0.00,40.00,0,-999,0,0.07
2013-1-29,21,10,1,-100,-100,-100,0,0,100,0.00,40.00,0,-999,0,0.01
2013-1-30,20,12,-1,-100,-100,-100,0,0,100,0.00,40.00,0,-999,0,0.01
2013-1-31,37,25,17,-100,-100,-100,0,0,100,0.00,40.00,0,-999,0,0.01
2013-2-1,33,24,17,-100,-100,-100,0,0,100,0.00,40.00,0,-999,0,0.00
2013-2-2,39,27,16,-100,-100,-100,0,0,100,0.00,40.00,0,-999,0,0.00
2013-2-3,33,26,20,-100,-100,-100,0,0,100,0.00,40.00,0,-999,0,0.00
2013-2-4,39,25,18,-100,-100,-100,0,0,100,0.00,40.00,0,-999,0,0.00
2013-2-5,47,31,19,-100,-100,-100,0,0,100,0.00,40.00,0,-999,0,0.00
2013-2-6,39,30,22,-100,-100,-100,0,0,100,0.00,40.00,0,-999,0,0.00
2013-2-7,39,26,16,-100,-100,-100,0,0,100,0.00,40.00,0,-999,0,0.00
2013-2-8,36,31,25,-100,-100,-100,0,0,100,0.00,40.00,0,-999,0,0.00
2013-2-9,24,20,16,-100,-100,-100,0,0,100,0.00,40.00,0,-999,0,0.02
2013-2-10,24,17,11,-100,-100,-100,0,0,100,0.00,40.00,0,-999,0,0.01
2013-2-11,20,14,5,-100,-100,-100,0,0,100,0.00,40.00,0,-999,0,0.02
2013-2-12,25,11,1,-100,-100,-100,0,0,100,0.00,40.00,0,-999,0,0.00
2013-2-13,32,19,9,-100,-100,-100,0,0,100,0.00,40.00,0,-999,0,0.00
2013-2-14,31,20,11,-100,-100,-100,0,0,100,0.00,40.00,0,-999,0,0.00
2013-2-15,32,20,11,-100,-100,-100,0,0,100,0.00,40.00,0,-999,0,0.00
2013-2-16,39,27,16,-100,-100,-100,0,0,100,0.00,40.00,0,-999,0,0.00
2013-2-17,38,29,24,-100,-100,-100,0,0,100,0.00,40.00,0,-999,0,0.00
2013-2-18,28,18,7,-100,-100,-100,0,0,100,0.00,40.00,0,-999,0,0.00
2013-2-19,36,26,16,-100,-100,-100,0,0,100,0.00,40.00,0,-999,0,0.00
2013-2-20,28,25,22,-100,-100,-100,0,0,100,0.00,40.00,0,-999,0,0.00
2013-2-21,30,22,16,-100,-100,-100,0,0,100,0.00,40.00,0,-999,0,0.02
2013-2-22,22,14,3,-100,-100,-100,0,0,100,0.00,40.00,0,-999,0,0.02
2013-2-23,27,15,4,-100,-100,-100,0,0,100,0.00,40.00,0,-999,0,0.01
2013-2-24,19,10,-2,-100,-100,-100,0,0,100,0.00,40.00,0,-999,0,0.01
2013-2-25,29,21,17,-100,-100,-100,0,0,100,0.00,40.00,0,-999,0,0.00
2013-2-26,22,16,11,-100,-100,-100,0,0,100,0.00,40.00,0,-999,0,0.00
2013-2-27,30,14,6,-100,-100,-100,0,0,100,0.00,40.00,0,-999,0,0.01
2013-2-28,33,19,6,-100,-100,-100,0,0,100,0.00,40.00,0,-999,0,0.00
2013-3-1,36,26,14,-100,-100,-100,0,0,100,0.00,40.00,0,-999,0,0.00
2013-3-2,47,34,23,-100,-100,-100,0,0,100,0.00,40.00,0,-999,0,0.00
2013-3-3,40,35,31,-100,-100,-100,0,0,100,0.00,40.00,0,-999,0,0.00
2013-3-4,38,30,15,-100,-100,-100,0,0,100,0.00,40.00,0,-999,0,0.01
2013-3-5,42,28,11,-100,-100,-100,0,0,100,0.00,40.00,0,-999,0,0.00
2013-3-6,45,38,31,-100,-100,-100,0,0,100,0.00,40.00,0,-999,0,0.00
2013-3-7,47,38,32,-100,-100,-100,0,0,100,0.00,40.00,0,-999,0,0.00
2013-3-8,35,31,27,-100,-100,-100,0,0,100,0.00,40.00,0,-999,0,0.02
2013-3-9,27,23,19,-100,-100,-100,0,0,100,0.00,40.00,0,-999,0,0.03
2013-3-10,33,22,15,-100,-100,-100,0,0,100,0.00,40.00,0,-999,0,0.01
2013-3-11,41,27,17,-100,-100,-100,0,0,100,0.00,40.00,0,-999,0,0.00
2013-3-12,45,34,24,-100,-100,-100,0,0,100,0.00,40.00,0,-999,0,0.00
2013-3-13,51,37,26,-100,-100,-100,0,0,100,0.00,40.00,0,-999,0,0.00
2013-3-14,55,43,31,-100,-100,-100,0,0,100,0.00,40.00,0,-999,0,0.00
2013-3-15,53,44,38,-100,-100,-100,0,0,100,0.00,40.00,0,-999,0,0.00
2013-3-16,43,38,34,-100,-100,-100,0,0,100,0.00,40.00,0,-999,0,0.00
2013-3-17,42,35,29,-100,-100,-100,0,0,100,0.00,40.00,0,-999,0,0.00
2013-3-18,40,32,24,-100,-100,-100,0,0,100,0.00,40.00,0,-999,0,0.00
2013-3-19,40,33,26,-100,-100,-100,0,0,100,0.00,40.00,0,-999,0,0.00
2013-3-20,40,34,25,-100,-100,-100,0,0,100,0.00,40.00,0,-999,0,0.00
2013-3-21,40,34,22,-100,-100,-100,0,0,100,0.00,40.00,0,-999,0,0.01
2013-3-22,40,28,19,-100,-100,-100,0,0,100,0.00,40.00,0,-999,0,0.00
2013-3-23,22,14,6,-100,-100,-100,0,0,100,0.00,40.00,0,-999,0,0.00
2013-3-24,27,16,6,-100,-100,-100,0,0,100,0.00,40.00,0,-999,0,0.00
2013-3-25,34,22,6,-100,-100,-100,0,0,100,0.00,40.00,0,-999,0,0.01
2013-3-26,45,34,24,-100,-100,-100,0,0,100,0.00,40.00,0,-999,0,0.01
2013-3-27,52,40,31,-100,-100,-100,0,0,100,0.00,40.00,0,-999,0,0.00
2013-3-28,51,42,34,-100,-100,-100,0,0,100,0.00,40.00,0,-999,0,0.00
2013-3-29,53,42,37,-100,-100,-100,0,0,100,0.00,40.00,0,-999,0,0.00
2013-3-30,50,41,33,-100,-100,-100,0,0,100,0.00,40.00,0,-999,0,0.00
2013-3-31,54,42,32,-100,-100,-100,0,0,100,0.00,40.00,0,-999,0,0.00
2013-4-1,50,42,32,-100,-100,-100,0,0,100,0.00,40.00,0,-999,0,0.00
2013-4-2,43,35,29,-100,-100,-100,0,0,100,0.00,40.00,0,-999,0,0.00
2013-4-3,48,36,27,-100,-100,-100,0,0,100,0.00,40.00,0,-999,0,0.00
2013-4-4,53,42,31,-100,-100,-100,0,0,100,0.00,40.00,0,-999,0,0.00
2013-4-5,50,43,38,-100,-100,-100,0,0,100,0.00,40.00,0,-999,0,0.00
2013-4-6,50,41,30,-100,-100,-100,0,0,100,0.00,40.00,0,-999,0,0.00
2013-4-7,50,41,32,-100,-100,-100,0,0,100,0.00,40.00,0,-999,0,0.00
2013-4-8,42,37,28,-100,-100,-100,0,0,100,0.00,40.00,0,-999,0,0.03
2013-4-9,29,24,14,-100,-100,-100,0,0,100,0.00,40.00,0,-999,0,0.01
2013-4-10,29,18,8,-100,-100,-100,0,0,100,0.00,40.00,0,-999,0,0.01
2013-4-11,40,31,16,-100,-100,-100,0,0,100,0.00,40.00,0,-999,0,0.01
2013-4-12,47,36,28,-100,-100,-100,0,0,100,0.00,40.00,0,-999,0,0.01
2013-4-13,47,41,31,-100,-100,-100,0,0,100,0.00,40.00,0,-999,0,0.00
2013-4-14,42,36,28,-100,-100,-100,0,0,100,0.00,40.00,0,-999,0,0.01
2013-4-15,42,35,29,-100,-100,-100,0,0,100,0.00,40.00,0,-999,0,0.00
2013-4-16,47,38,31,-100,-100,-100,0,0,100,0.00,40.00,0,-999,0,0.00
2013-4-17,30,23,12,-100,-100,-100,0,0,100,0.00,40.00,0,-999,0,0.01
2013-4-18,27,16,9,-100,-100,-100,0,0,100,0.00,40.00,0,-999,0,0.01
2013-4-19,40,28,14,-100,-100,-100,0,0,100,0.00,40.00,0,-999,0,0.01
2013-4-20,42,32,27,-100,-100,-100,0,0,100,0.00,40.00,0,-999,0,0.01
2013-4-21,48,38,25,-100,-100,-100,0,0,100,0.00,40.00,0,-999,0,0.01
2013-4-22,52,44,34,-100,-100,-100,0,0,100,0.00,40.00,0,-999,0,0.01
2013-4-23,36,31,24,-100,-100,-100,0,0,100,0.00,40.00,0,-999,0,0.00
2013-4-24,40,37,31,-100,-100,-100,0,0,100,0.00,40.00,0,-999,0,0.00
2013-4-25,52,41,31,-100,-100,-100,0,0,100,0.00,40.00,0,-999,0,0.00
2013-4-26,51,43,33,-100,-100,-100,0,0,100,0.00,40.00,0,-999,0,0.00
2013-4-27,56,44,34,-100,-100,-100,0,0,100,0.00,40.00,0,-999,0,0.00
2013-4-28,58,48,37,-100,-100,-100,0,0,100,0.00,40.00,0,-999,0,0.00
2013-4-29,60,52,45,-100,-100,-100,0,0,100,0.00,40.00,0,-999,0,0.00
2013-4-30,58,53,46,-100,-100,-100,0,0,100,0.00,40.00,0,-999,0,0.00
2013-5-1,43,36,27,-100,-100,-100,0,0,100,0.00,40.00,0,-999,0,0.00
2013-5-2,41,31,20,-100,-100,-100,0,0,100,0.00,40.00,0,-999,0,0.00
2013-5-3,53,42,25,-100,-100,-100,0,0,100,0.00,40.00,0,-999,0,0.01
2013-5-4,56,45,34,-100,-100,-100,0,0,100,0.00,40.00,0,-999,0,0.00
2013-5-5,54,48,43,-100,-100,-100,0,0,100,0.00,40.00,0,-999,0,0.01
2013-5-6,47,39,35,-100,-100,-100,0,0,100,0.00,40.00,0,-999,0,0.03
2013-5-7,40,37,34,-100,-100,-100,0,0,100,0.00,40.00,0,-999,0,0.01
2013-5-8,42,36,31,-100,-100,-100,0,0,100,0.00,40.00,0,-999,0,0.01
2013-5-9,47,38,33,-100,-100,-100,0,0,100,0.00,40.00,0,-999,0,0.02
2013-5-10,50,41,33,-100,-100,-100,0,0,100,0.00,40.00,0,-999,0,0.00
2013-5-11,56,45,36,-100,-100,-100,0,0,100,0.00,40.00,0,-999,0,0.00
2013-5-12,59,50,41,-100,-100,-100,0,0,100,0.00,40.00,0,-999,0,0.00
2013-5-13,64,53,44,-100,-100,-100,0,0,100,0.00,40.00,0,-999,0,0.00
2013-5-14,65,55,48,-100,-100,-100,0,0,100,0.00,40.00,0,-999,0,0.02
2013-5-15,64,55,48,-100,-100,-100,0,0,100,0.00,40.00,0,-999,0,0.01
2013-5-16,63,54,45,-100,-100,-100,0,0,100,0.00,40.00,0,-999,0,0.00
2013-5-17,60,52,42,-100,-100,-100,0,0,100,0.00,40.00,0,-999,0,0.00
2013-5-18,53,45,38,-100,-100,-100,0,0,100,0.00,40.00,0,-999,0,0.00
2013-5-19,48,39,33,-100,-100,-100,0,0,100,0.00,40.00,0,-999,0,0.00
2013-5-20,49,40,32,-100,-100,-100,0,0,100,0.00,40.00,0,-999,0,0.00
2013-5-21,56,46,33,-100,-100,-100,0,0,100,0.00,40.00,0,-999,0,0.00
2013-5-22,63,53,42,-100,-100,-100,0,0,100,0.00,40.00,0,-999,0,0.00
2013-5-23,66,56,46,-100,-100,-100,0,0,100,0.00,40.00,0,-999,0,0.00
2013-5-24,62,54,46,-100,-100,-100,0,0,100,0.00,40.00,0,-999,0,0.00
2013-5-25,65,54,44,-100,-100,-100,0,0,100,0.00,40.00,0,-999,0,0.00
2013-5-26,63,53,44,-100,-100,-100,0,0,100,0.00,40.00,0,-999,0,0.00
2013-5-27,62,52,42,-100,-100,-100,0,0,100,0.00,40.00,0,-999,0,0.00
2013-5-28,59,50,40,-100,-100,-100,0,0,100,0.00,40.00,0,-999,0,0.00
2013-5-29,51,43,36,-100,-100,-100,0,0,100,0.00,40.00,0,-999,0,0.01
2013-5-30,57,46,38,-100,-100,-100,0,0,100,0.00,40.00,0,-999,0,0.00
2013-5-31,56,46,37,-100,-100,-100,0,0,100,0.00,40.00,0,-999,0,0.00
2013-6-1,61,47,33,-100,-100,-100,0,0,100,0.00,40.00,0,-999,0,0.00
2013-6-2,68,56,43,-100,-100,-100,0,0,100,0.00,40.00,0,-999,0,0.00
2013-6-3,67,57,49,-100,-100,-100,0,0,100,0.00,40.00,0,-999,0,0.00
2013-6-4,69,58,46,-100,-100,-100,0,0,100,0.00,40.00,0,-999,0,0.00
2013-6-5,67,57,45,-100,-100,-100,0,0,100,0.00,40.00,0,-999,0,0.00
2013-6-6,68,57,47,-100,-100,-100,0,0,100,0.00,40.00,0,-999,0,0.00
2013-6-7,70,56,48,-100,-100,-100,0,0,100,0.00,40.00,0,-999,0,0.00
2013-6-8,74,60,47,-100,-100,-100,0,0,100,0.00,40.00,0,-999,0,0.00
2013-6-9,76,61,45,-100,-100,-100,0,0,100,0.00,40.00,0,-999,0,0.00
2013-6-10,76,66,56,-100,-100,-100,0,0,100,0.00,40.00,0,-999,0,0.00
2013-6-11,70,61,50,-100,-100,-100,0,0,100,0.00,40.00,0,-999,0,0.00
2013-6-12,72,61,51,-100,-100,-100,0,0,100,0.00,40.00,0,-999,0,0.00
2013-6-13,70,62,53,-100,-100,-100,0,0,100,0.00,40.00,0,-999,0,0.00
2013-6-14,71,60,51,-100,-100,-100,0,0,100,0.00,40.00,0,-999,0,0.00
2013-6-15,68,58,47,-100,-100,-100,0,0,100,0.00,40.00,0,-999,0,0.00
2013-6-16,67,57,48,-100,-100,-100,0,0,100,0.00,40.00,0,-999,0,0.00
2013-6-17,71,60,51,-100,-100,-100,0,0,100,0.00,40.00,0,-999,0,0.00
2013-6-18,71,60,50,-100,-100,-100,0,0,100,0.00,40.00,0,-999,0,0.00
2013-6-19,70,60,48,-100,-100,-100,0,0,100,0.00,40.00,0,-999,0,0.00
2013-6-20,68,56,48,-100,-100,-100,0,0,100,0.00,40.00,0,-999,0,0.00
2013-6-22,69,62,52,-100,-100,-100,0,0,100,0.00,40.00,0,-999,0,0.00
2013-6-23,70,59,46,-100,-100,-100,0,0,100,0.00,40.00,0,-999,0,0.00
2013-6-24,65,58,49,-100,-100,-100,0,0,100,0.00,40.00,0,-999,0,0.00
2013-6-25,70,58,45,-100,-100,-100,0,0,100,0.00,40.00,0,-999,0,0.00
2013-6-26,77,63,53,-100,-100,-100,0,0,100,0.00,40.00,0,-999,0,0.00
2013-6-27,81,67,54,-100,-100,-100,0,0,100,0.00,40.00,0,-999,0,1.09
2013-6-28,83,70,57,-100,-100,-100,0,0,100,0.00,40.00,0,-999,0,1.09
2013-6-29,77,67,55,-100,-100,-100,0,0,100,0.00,40.00,0,-999,0,0.01
2013-6-30,73,64,57,-100,-100,-100,0,0,100,0.00,40.00,0,-999,0,0.01
2013-7-1,77,64,53,-100,-100,-100,0,0,100,0.00,40.00,0,-999,0,0.01
2013-7-2,76,64,54,-100,-100,-100,0,0,100,0.00,40.00,0,-999,0,0.00
2013-7-3,76,64,53,-100,-100,-100,0,0,100,0.00,40.00,0,-999,0,0.00
2013-7-4,72,63,53,-100,-100,-100,0,0,100,0.00,40.00,0,-999,0,0.01
2013-7-5,75,65,57,-100,-100,-100,0,0,100,0.00,40.00,0,-999,0,0.00
2013-7-6,73,62,53,-100,-100,-100,0,0,100,0.00,40.00,0,-999,0,0.00
2013-7-7,76,64,52,-100,-100,-100,0,0,100,0.00,40.00,0,-999,0,0.00
2013-7-8,74,61,51,-100,-100,-100,0,0,100,0.00,40.00,0,-999,0,0.00
2013-7-9,79,65,57,-100,-100,-100,0,0,100,0.00,40.00,0,-999,0,0.00
2013-7-10,81,67,58,-100,-100,-100,0,0,100,0.00,40.00,0,-999,0,0.00
2013-7-11,75,63,54,-100,-100,-100,0,0,100,0.00,40.00,0,-999,0,0.00
2013-7-12,73,60,53,-100,-100,-100,0,0,100,0.00,40.00,0,-999,0,0.00
2013-7-13,71,61,51,-100,-100,-100,0,0,100,0.00,40.00,0,-999,0,0.01
2013-7-14,70,60,51,-100,-100,-100,0,0,100,0.00,40.00,0,-999,0,0.02
2013-7-15,71,59,53,-100,-100,-100,0,0,100,0.00,40.00,0,-999,0,0.01
2013-7-16,68,58,50,-100,-100,-100,0,0,100,0.00,40.00,0,-999,0,0.00
2013-7-17,69,59,52,-100,-100,-100,0,0,100,0.00,40.00,0,-999,0,0.00
2013-7-18,71,59,50,-100,-100,-100,0,0,100,0.00,40.00,0,-999,0,0.04
2013-7-19,72,59,50,-100,-100,-100,0,0,100,0.00,40.00,0,-999,0,0.01
2013-7-20,75,62,54,-100,-100,-100,0,0,100,0.00,40.00,0,-999,0,0.00
2013-7-21,75,63,55,-100,-100,-100,0,0,100,0.00,40.00,0,-999,0,0.01
2013-7-22,77,64,54,-100,-100,-100,0,0,100,0.00,40.00,0,-999,0,0.00
2013-7-23,78,64,56,-100,-100,-100,0,0,100,0.00,40.00,0,-999,0,0.00
2013-7-24,71,59,52,-100,-100,-100,0,0,100,0.00,40.00,0,-999,0,0.01
2013-7-25,73,62,52,-100,-100,-100,0,0,100,0.00,40.00,0,-999,0,0.00
2013-7-26,76,64,55,-100,-100,-100,0,0,100,0.00,40.00,0,-999,0,0.00
2013-7-27,72,60,52,-100,-100,-100,0,0,100,0.00,40.00,0,-999,0,0.00
2013-7-28,59,53,50,-100,-100,-100,0,0,100,0.00,40.00,0,-999,0,0.01
2013-7-29,63,52,46,-100,-100,-100,0,0,100,0.00,40.00,0,-999,0,0.02
2013-7-30,69,58,46,-100,-100,-100,0,0,100,0.00,40.00,0,-999,0,0.01
2013-7-31,72,62,52,-100,-100,-100,0,0,100,0.00,40.00,0,-999,0,0.00
2013-8-1,59,55,51,-100,-100,-100,0,0,100,0.00,40.00,0,-999,0,0.01
2013-8-2,67,58,47,-100,-100,-100,0,0,100,0.00,40.00,0,-999,0,0.02
2013-8-3,66,58,53,-100,-100,-100,0,0,100,0.00,40.00,0,-999,0,0.00
2013-8-4,69,58,52,-100,-100,-100,0,0,100,0.00,40.00,0,-999,0,0.01
2013-8-5,66,57,53,-100,-100,-100,0,0,100,0.00,40.00,0,-999,0,0.01
2013-8-6,66,56,50,-100,-100,-100,0,0,100,0.00,40.00,0,-999,0,0.00
2013-8-7,61,53,49,-100,-100,-100,0,0,100,0.00,40.00,0,-999,0,0.01
2013-8-8,67,53,47,-100,-100,-100,0,0,100,0.00,40.00,0,-999,0,0.00
2013-8-9,65,53,45,-100,-100,-100,0,0,100,0.00,40.00,0,-999,0,0.01
2013-8-10,64,52,43,-100,-100,-100,0,0,100,0.00,40.00,0,-999,0,0.02
2013-8-11,65,52,44,-100,-100,-100,0,0,100,0.00,40.00,0,-999,0,0.02
2013-8-12,65,56,49,-100,-100,-100,0,0,100,0.00,40.00,0,-999,0,0.00
2013-8-13,69,57,45,-100,-100,-100,0,0,100,0.00,40.00,0,-999,0,0.00
2013-8-14,68,57,50,-100,-100,-100,0,0,100,0.00,40.00,0,-999,0,0.01
2013-8-15,72,61,52,-100,-100,-100,0,0,100,0.00,40.00,0,-999,0,0.00
2013-8-16,74,64,54,-100,-100,-100,0,0,100,0.00,40.00,0,-999,0,0.00
2013-8-17,71,62,55,-100,-100,-100,0,0,100,0.00,40.00,0,-999,0,0.01
2013-8-18,71,61,52,-100,-100,-100,0,0,100,0.00,40.00,0,-999,0,0.00
2013-8-19,74,61,52,-100,-100,-100,0,0,100,0.00,40.00,0,-999,0,0.00
2013-8-20,70,58,49,-100,-100,-100,0,0,100,0.00,40.00,0,-999,0,0.02
2013-8-21,72,57,48,-100,-100,-100,0,0,100,0.00,40.00,0,-999,0,0.01
2013-8-22,67,56,49,-100,-100,-100,0,0,100,0.00,40.00,0,-999,0,0.03
2013-8-23,68,57,50,-100,-100,-100,0,0,100,0.00,40.00,0,-999,0,0.03
2013-8-24,62,55,49,-100,-100,-100,0,0,100,0.00,40.00,0,-999,0,0.01
2013-8-25,54,52,49,-100,-100,-100,0,0,100,0.00,40.00,0,-999,0,0.01
2013-8-26,62,54,49,-100,-100,-100,0,0,100,0.00,40.00,0,-999,0,0.01
2013-8-27,67,57,48,-100,-100,-100,0,0,100,0.00,40.00,0,-999,0,0.00
2013-8-28,72,67,56,-100,-100,-100,0,0,100,0.00,40.00,0,-999,0,0.00
2013-8-29,73,59,52,-100,-100,-100,0,0,100,0.00,40.00,0,-999,0,0.04
2013-8-30,72,62,55,-100,-100,-100,0,0,100,0.00,40.00,0,-999,0,0.01
2013-8-31,69,57,52,-100,-100,-100,0,0,100,0.00,40.00,0,-999,0,0.04
2013-9-1,71,58,49,-100,-100,-100,0,0,100,0.00,40.00,0,-999,0,0.04
2013-9-2,72,59,51,-100,-100,-100,0,0,100,0.00,40.00,0,-999,0,0.00
2013-9-3,71,59,53,-100,-100,-100,0,0,100,0.00,40.00,0,-999,0,0.00
2013-9-4,72,63,55,-100,-100,-100,0,0,100,0.00,40.00,0,-999,0,0.00
2013-9-5,73,63,52,-100,-100,-100,0,0,100,0.00,40.00,0,-999,0,0.00
2013-9-6,73,62,54,-100,-100,-100,0,0,100,0.00,40.00,0,-999,0,0.00
2013-9-7,74,63,53,-100,-100,-100,0,0,100,0.00,40.00,0,-999,0,0.00
2013-9-8,64,56,50,-100,-100,-100,0,0,100,0.00,40.00,0,-999,0,0.01
2013-9-9,58,52,48,-100,-100,-100,0,0,100,0.00,40.00,0,-999,0,0.02
2013-9-10,56,51,47,-100,-100,-100,0,0,100,0.00,40.00,0,-999,0,0.03
2013-9-11,58,52,48,-100,-100,-100,0,0,100,0.00,40.00,0,-999,0,0.01
2013-9-12,60,51,45,-100,-100,-100,0,0,100,0.00,40.00,0,-999,0,0.00
2013-9-13,60,52,45,-100,-100,-100,0,0,100,0.00,40.00,0,-999,0,0.00
2013-9-14,54,48,44,-100,-100,-100,0,0,100,0.00,40.00,0,-999,0,0.03
2013-9-15,56,48,44,-100,-100,-100,0,0,100,0.00,40.00,0,-999,0,0.01
2013-9-16,63,51,46,-100,-100,-100,0,0,100,0.00,40.00,0,-999,0,0.00
2013-9-17,62,55,47,-100,-100,-100,0,0,100,0.00,40.00,0,-999,0,0.00
2013-9-18,55,51,48,-100,-100,-100,0,0,100,0.00,40.00,0,-999,0,0.00
2013-9-19,61,50,41,-100,-100,-100,0,0,100,0.00,40.00,0,-999,0,0.00
2013-9-20,63,52,39,-100,-100,-100,0,0,100,0.00,40.00,0,-999,0,0.00
2013-9-21,62,53,47,-100,-100,-100,0,0,100,0.00,40.00,0,-999,0,0.01
2013-9-22,50,44,35,-100,-100,-100,0,0,100,0.00,40.00,0,-999,0,0.06
2013-9-23,50,40,35,-100,-100,-100,0,0,100,0.00,40.00,0,-999,0,0.02
2013-9-24,59,46,35,-100,-100,-100,0,0,100,0.00,40.00,0,-999,0,0.00
2013-9-25,59,52,45,-100,-100,-100,0,0,100,0.00,40.00,0,-999,0,0.00
2013-9-26,57,50,43,-100,-100,-100,0,0,100,0.00,40.00,0,-999,0,0.00
2013-9-27,43,34,28,-100,-100,-100,0,0,100,0.00,40.00,0,-999,0,0.04
2013-9-28,48,34,24,-100,-100,-100,0,0,100,0.00,40.00,0,-999,0,0.01
2013-9-30,59,50,41,-100,-100,-100,0,0,100,0.00,40.00,0,-999,0,0.00
2013-10-1,59,50,46,-100,-100,-100,0,0,100,0.00,40.00,0,-999,0,0.00
2013-10-2,58,51,42,-100,-100,-100,0,0,100,0.00,40.00,0,-999,0,0.00
2013-10-3,53,47,42,-100,-100,-100,0,0,100,0.00,40.00,0,-999,0,0.00
2013-10-4,33,27,16,-100,-100,-100,0,0,100,0.00,40.00,0,-999,0,0.01
2013-10-5,40,30,19,-100,-100,-100,0,0,100,0.00,40.00,0,-999,0,0.00
2013-10-6,53,39,27,-100,-100,-100,0,0,100,0.00,40.00,0,-999,0,0.00
2013-10-7,58,46,38,-100,-100,-100,0,0,100,0.00,40.00,0,-999,0,0.00
2013-10-8,56,48,43,-100,-100,-100,0,0,100,0.00,40.00,0,-999,0,0.00
2013-10-9,50,46,42,-100,-100,-100,0,0,100,0.00,40.00,0,-999,0,0.00
2013-10-10,39,34,31,-100,-100,-100,0,0,100,0.00,40.00,0,-999,0,0.07
2013-10-11,38,34,31,-100,-100,-100,0,0,100,0.00,40.00,0,-999,0,0.02
2013-10-12,44,36,30,-100,-100,-100,0,0,100,0.00,40.00,0,-999,0,0.00
2013-10-13,48,45,42,-100,-100,-100,0,0,100,0.00,40.00,0,-999,0,0.00
2013-10-21,40,34,30,-100,-100,-100,0,0,100,0.00,40.00,0,-999,0,0.00
2013-10-22,52,41,32,-100,-100,-100,0,0,100,0.00,40.00,0,-999,0,0.00
2013-10-23,48,40,35,-100,-100,-100,0,0,100,0.00,40.00,0,-999,0,0.00
2013-10-24,55,48,38,-100,-100,-100,0,0,100,0.00,40.00,0,-999,0,0.00
2013-10-25,43,39,37,-100,-100,-100,0,0,100,0.00,40.00,0,-999,0,0.00
2013-10-26,48,40,33,-100,-100,-100,0,0,100,0.00,40.00,0,-999,0,0.00
2013-10-27,47,42,36,-100,-100,-100,0,0,100,0.00,40.00,0,-999,0,0.00
2013-11-2,46,41,28,-100,-100,-100,0,0,100,0.00,40.00,0,-999,0,0.00
2013-11-3,44,39,34,-100,-100,-100,0,0,100,0.00,40.00,0,-999,0,0.00
2013-11-4,36,30,23,-100,-100,-100,0,0,100,0.00,40.00,0,-999,0,0.00
2013-11-5,27,18,11,-100,-100,-100,0,0,100,0.00,40.00,0,-999,0,0.00
2013-11-6,30,22,14,-100,-100,-100,0,0,100,0.00,40.00,0,-999,0,0.00
2013-11-7,27,24,21,-100,-100,-100,0,0,100,0.00,40.00,0,-999,0,0.00
2013-11-8,45,38,33,-100,-100,-100,0,0,100,0.00,40.00,0,-999,0,0.00
2013-11-12,51,42,36,-100,-100,-100,0,0,100,0.00,40.00,0,-999,0,0.00
2013-11-13,46,42,36,-100,-100,-100,0,0,100,0.00,40.00,0,-999,0,0.00
2013-11-14,43,35,30,-100,-100,-100,0,0,100,0.00,40.00,0,-999,0,0.00
2013-11-15,37,36,35,-100,-100,-100,0,0,100,0.00,40.00,0,-999,0,0.00
2013-11-16,30,30,29,-100,-100,-100,0,0,100,0.00,40.00,0,-999,0,0.01
2013-11-17,37,31,28,-100,-100,-100,0,0,100,0.00,40.00,0,-999,0,0.00
2013-11-18,44,31,25,-100,-100,-100,0,0,100,0.00,40.00,0,-999,0,0.00
2013-11-19,39,35,32,-100,-100,-100,0,0,100,0.00,40.00,0,-999,0,0.00
2013-11-20,33,31,29,-100,-100,-100,0,0,100,0.00,40.00,0,-999,0,0.02
2013-11-21,32,32,31,-100,-100,-100,0,0,100,0.00,40.00,0,-999,0,0.04
2013-11-22,30,29,28,-100,-100,-100,0,0,100,0.00,40.00,0,-999,0,0.00
2013-11-23,38,32,26,-100,-100,-100,0,0,100,0.00,40.00,0,-999,0,0.02
2013-11-24,31,27,24,-100,-100,-100,0,0,100,0.00,40.00,0,-999,0,0.02
2013-11-25,26,23,21,-100,-100,-100,0,0,100,0.00,40.00,0,-999,0,0.01
2013-11-26,34,26,20,-100,-100,-100,0,0,100,0.00,40.00,0,-999,0,0.00
2013-11-27,44,30,22,-100,-100,-100,0,0,100,0.00,40.00,0,-999,0,0.00
2013-11-28,42,30,24,-100,-100,-100,0,0,100,0.00,40.00,0,-999,0,0.00
2013-11-29,38,30,25,-100,-100,-100,0,0,100,0.00,40.00,0,-999,0,0.00
2013-11-30,36,28,24,-100,-100,-100,0,0,100,0.00,40.00,0,-999,0,0.00
2013-12-1,34,30,24,-100,-100,-100,0,0,100,0.00,40.00,0,-999,0,0.00
2013-12-2,36,32,28,-100,-100,-100,0,0,100,0.00,40.00,0,-999,0,0.00
2013-12-3,32,31,30,-100,-100,-100,0,0,100,0.00,40.00,0,-999,0,0.01
2013-12-4,30,18,10,-100,-100,-100,0,0,100,0.00,40.00,0,-999,0,0.03
2013-12-5,13,6,-7,-100,-100,-100,0,0,100,0.00,40.00,0,-999,0,0.00
2013-12-6,11,6,3,-100,-100,-100,0,0,100,0.00,40.00,0,-999,0,0.00
2013-12-7,17,14,11,-100,-100,-100,0,0,100,0.00,40.00,0,-999,0,0.01
2013-12-8,15,9,2,-100,-100,-100,0,0,100,0.00,40.00,0,-999,0,0.06
2013-12-9,13,3,-4,-100,-100,-100,0,0,100,0.00,40.00,0,-999,0,0.02
2013-12-10,23,14,1,-100,-100,-100,0,0,100,0.00,40.00,0,-999,0,0.01
2013-12-11,32,22,14,-100,-100,-100,0,0,100,0.00,40.00,0,-999,0,0.00
2013-12-12,41,25,17,-100,-100,-100,0,0,100,0.00,40.00,0,-999,0,0.00
2013-12-13,37,25,17,-100,-100,-100,0,0,100,0.00,40.00,0,-999,0,0.00
2013-12-14,25,20,14,-100,-100,-100,0,0,100,0.00,40.00,0,-999,0,0.00
2013-12-15,34,28,22,-100,-100,-100,0,0,100,0.00,40.00,0,-999,0,0.00
2013-12-16,43,32,28,-100,-100,-100,0,0,100,0.00,40.00,0,-999,0,0.00
2013-12-17,35,31,27,-100,-100,-100,0,0,100,0.00,40.00,0,-999,0,0.00
2013-12-18,43,37,33,-100,-100,-100,0,0,100,0.00,40.00,0,-999,0,0.00
2013-12-19,34,32,28,-100,-100,-100,0,0,100,0.00,40.00,0,-999,0,0.00
2013-12-20,27,26,26,-100,-100,-100,0,0,100,0.00,40.00,0,-999,0,0.01
2013-12-21,24,20,18,-100,-100,-100,0,0,100,0.00,40.00,0,-999,0,0.01
2013-12-22,23,18,10,-100,-100,-100,0,0,100,0.00,40.00,0,-999,0,0.02
2013-12-23,31,23,18,-100,-100,-100,0,0,100,0.00,40.00,0,-999,0,0.02
2013-12-24,32,24,15,-100,-100,-100,0,0,100,0.00,40.00,0,-999,0,0.00
2013-12-25,33,23,13,-100,-100,-100,0,0,100,0.00,40.00,0,-999,0,0.00
2013-12-26,39,28,19,-100,-100,-100,0,0,100,0.00,40.00,0,-999,0,0.00
2013-12-27,42,32,24,-100,-100,-100,0,0,100,0.00,40.00,0,-999,0,0.00
2013-12-28,35,30,27,-100,-100,-100,0,0,100,0.00,40.00,0,-999,0,0.00
2013-12-29,26,21,17,-100,-100,-100,0,0,100,0.00,40.00,0,-999,0,0.00
2013-12-30,30,25,19,-100,-100,-100,0,0,100,0.00,40.00,0,-999,0,0.00
2013-12-31,33,29,24,-100,-100,-100,0,0,100,0.00,40.00,0,-999,0,0.00
2014-1-1,34,28,22,-100,-100,-100,0,0,100,0.00,40.00,0,-999,0,0.00